Buenos Aires, Argentina

5:47 AM America en Septiembre 20, 2018 (GMT +0000)
Jorge Newbery Aeroparque

Tiempo Historia de SABE - Septiembre, 2018

Change the Weather History Date:

Viernes, Septiembre 14, 2018

  Actual Average Record
Temperature  
Temperatura media 60 ° F -  
Temperatura máxima 64 ° F 67 ° F 75 ° F (1996)
Temperatura mínima 57 ° F 53 ° F 44 ° F (2000)
Degree Days  
Grados día de calefacción 4    
Growing Degree Days 10 (Base 50)    
Moisture  
Punto de rocío 56 ° F    
Average Humidity 86    
Maximum Humidity 100    
Minimum Humidity 73    
Precipitación  
Precipitación 0.00 pul 0.11 pul - ()
Presión al nivel del mar  
Presión al nivel del mar 30.05 pul    
Viento  
Velocidad del viento 10 mph ()    
Velocidad máxima del viento 16 mph    
Max Gust Speed -    
Visibilidad 6.1 Millas    
Eventos      
Averages and records for this station are not official NWS values.
T = Trace of Precipitation, MM = Missing Value Source: Averaged Metar Reports

Daily Weather History Graph

Daily Weather History Graph

Search for Another Location

Airport or City:

Astronomía

Sep. 14, 2018 Salida Puesta
Hora real 6:54 AM -03 6:44 PM -03
Crepúsculo civil 6:29 AM -03 7:09 PM -03
Crepúsculo náutico 6:00 AM -03 7:38 PM -03
Crepúsculo astronómico 5:30 AM -03 8:08 PM -03
Luna 10:11 AM -03 (9/14) Sin puesta de luna
Horas de luz 12h 40m
Horas de luz
11h 49m
Creciente, 27% of the Moon is Illuminated
Sep 14
Creciente
Sep 16
Cuarto creciente
Sep 24
Luna llena
Oct 2
Cuarto menguante
Oct 9
Nueva

Hourly Weather History & Observations

Hora (-03) Temp. Punto de rocío Humedad Presión Visibilidad Wind Dir Velocidad del viento Velocidad de ráfagas Precip Eventos Condiciones
12:00 AM 57 ° F 54 ° F 88% 30.11 pul 6 mi ESE 11.5 mph - -   Nublado
12:00 AM 57.2 ° F 55.4 ° F 94% 30.09 pul 6.2 mi ESE 12.7 mph - N/A   Nublado
1:00 AM 55.4 ° F 55.4 ° F 100% 30.09 pul 6.2 mi SE 11.5 mph - N/A   Nublado
2:00 AM 57.2 ° F 55.4 ° F 94% 30.09 pul 6.2 mi ESE 11.5 mph - N/A   Nublado
3:00 AM 59 ° F 54 ° F 79% 30.09 pul 6 mi ESE 12.7 mph - -   Nublado
3:00 AM 59.0 ° F 53.6 ° F 82% 30.06 pul 6.2 mi Este 12.7 mph - N/A   Nublado
4:00 AM 59.0 ° F 55.4 ° F 88% 30.06 pul 6.2 mi ESE 10.4 mph - N/A   Nublado
5:00 AM 59.0 ° F 55.4 ° F 88% 30.06 pul 6.2 mi ESE 10.4 mph - N/A   Nublado
6:00 AM 58 ° F 55 ° F 87% 30.06 pul 6 mi ESE 9.2 mph - -   Nublado
6:00 AM 59.0 ° F 55.4 ° F 88% 30.04 pul 6.2 mi ESE 9.2 mph - N/A   Nublado
7:00 AM 59.0 ° F 53.6 ° F 82% 30.06 pul 6.2 mi SE 9.2 mph - N/A   Nublado
8:00 AM 59.0 ° F 53.6 ° F 82% 30.06 pul 6.2 mi SE 10.4 mph - N/A   Nublado
9:00 AM 59 ° F 54 ° F 77% 30.09 pul 6 mi SE 10.4 mph - -   Nublado
9:00 AM 59.0 ° F 53.6 ° F 82% 30.09 pul 6.2 mi SE 10.4 mph - N/A   Nublado
10:00 AM 59.0 ° F 55.4 ° F 88% 30.09 pul 6.2 mi SE 8.1 mph - N/A   Nublado
11:00 AM 60.8 ° F 55.4 ° F 82% 30.09 pul 6.2 mi ESE 9.2 mph - N/A   Nublado
12:00 PM 60 ° F 55 ° F 78% 30.09 pul 6 mi ESE 10.4 mph - -   Nublado
12:00 PM 59.0 ° F 55.4 ° F 88% 30.09 pul 6.2 mi ESE 10.4 mph - N/A   Nublado
1:00 PM 60.8 ° F 55.4 ° F 82% 30.06 pul 6.2 mi ESE 10.4 mph - N/A   Nublado
2:00 PM 60.8 ° F 57.2 ° F 88% 30.04 pul 6.2 mi ESE 10.4 mph - N/A   Muy nublado
3:00 PM 64 ° F 57 ° F 73% 30.01 pul 6 mi ESE 6.9 mph - -   Parcialmente nublado
3:00 PM 64.4 ° F 57.2 ° F 77% 30.01 pul 6.2 mi ESE 6.9 mph - N/A   Nubes dispersas
4:00 PM 64.4 ° F 55.4 ° F 73% 29.98 pul 6.2 mi Este 10.4 mph - N/A   Muy nublado
6:00 PM 61 ° F 57 ° F 84% 29.99 pul 6 mi Este 9.2 mph - -   Muy nublado
6:00 PM 60.8 ° F 57.2 ° F 88% 29.98 pul 6.2 mi Este 10.4 mph - N/A   Nublado
7:00 PM 60.8 ° F 59.0 ° F 94% 29.98 pul 6.2 mi Este 13.8 mph - N/A   Nubes dispersas
8:00 PM 60.8 ° F 57.2 ° F 88% 29.98 pul 6.2 mi ESE 16.1 mph - N/A   Nubes dispersas
9:00 PM 61 ° F 57 ° F 81% 30.01 pul 6 mi SE 15.0 mph - -   Nublado
9:00 PM 59.0 ° F 57.2 ° F 94% 30.01 pul 6.2 mi ESE 15.0 mph - N/A   Nubes dispersas
10:00 PM 59.0 ° F 55.4 ° F 88% 29.98 pul 6.2 mi ESE 15.0 mph - N/A   Muy nublado
11:00 PM 59.0 ° F 57.2 ° F 94% 30.01 pul 6.2 mi Este 11.5 mph - N/A   Muy nublado